Overview Statistics Trail Chart Weather Telemetry Raw packets
 

This is the latest recevied weather packets stored in our database for station/object KA1JKB. If no packets are shown the sender has not sent any weather packets the latest 10 day(s).

<< 1 2 3 4 >>
Time Temp. Humidity Pressure Rain* Wind** Luminosity Snow
1788469795 22.22° C 98% 1013.5 hPa 0 mm - 161 W/m² -
1788469494 21.67° C 99% 1013.8 hPa 0 mm - 171 W/m² -
1788469190 21.67° C 99% 1013.9 hPa 0 mm - 216 W/m² -
1788468884 21.67° C 99% 1013.7 hPa 0 mm - 221 W/m² -
1788468578 21.67° C 99% 1013.6 hPa 0 mm - 560 W/m² -
1788468275 21.67° C 99% 1013.5 hPa 0 mm - 340 W/m² -
1788467970 21.11° C 99% 1013.7 hPa 0 mm - 276 W/m² -
1788467665 21.11° C 99% 1013.3 hPa 0 mm - 203 W/m² -
1788467365 21.11° C 99% 1013.3 hPa 0 mm - 207 W/m² -
1788467074 20.56° C 99% 1013.8 hPa 0 mm - 135 W/m² -
1788466761 21.11° C 99% 1014.2 hPa 0 mm - 35 W/m² -
1788466456 21.11° C 99% 1014 hPa 0 mm - 49 W/m² -
1788466155 21.11° C 99% 1013.9 hPa 0 mm - 81 W/m² -
1788465850 21.11° C 99% 1013.7 hPa 0 mm - 138 W/m² -
1788465545 20.56° C 99% 1013.3 hPa 0 mm - 98 W/m² -
1788465242 20.56° C 99% 1013.2 hPa 0 mm - 66 W/m² -
1788464936 21.11° C 99% 1013.9 hPa 1.78 mm - 33 W/m² -
1788464631 21.11° C 99% 1013.1 hPa 3.05 mm - 57 W/m² -
1788464327 22.78° C 98% 1012.7 hPa 43.69 mm - 15 W/m² -
1788464023 22.78° C 98% 1011.4 hPa 53.34 mm - 15 W/m² -
1788463718 22.78° C 95% 1011.7 hPa 22.86 mm - 20 W/m² -
1788463414 23.33° C 93% 1010.7 hPa 19.81 mm - 19 W/m² -
1788463110 26.11° C 90% 1010.6 hPa 7.11 mm - 21 W/m² -
1788462806 28.89° C 91% 1010.2 hPa 0 mm - 28 W/m² -
1788462505 29.44° C 88% 1010.2 hPa 0 mm - 49 W/m² -

* Rain latest hour (hover to see other rain measurements)
** Current wind speed in m/s (hover to see current wind gust speed)